1483948801.03,6271,3.75,72726.5,-13.83,-44.79,-45.41,0,*51
1483948802.29,6272,3.75,72718.8,-13.83,-44.73,-45.41,0,*58
1483948803.54,6273,3.75,72720.8,-13.85,-44.87,-45.47,0,*52
1483948804.78,6274,3.75,72726.3,-13.83,-44.53,-45.21,0,*5A
1483948806.04,6275,3.75,72716.8,-13.83,-44.33,-44.99,0,*5F
1483948807.29,6276,3.75,72718.5,-13.83,-44.79,-45.53,0,*55
1483948808.56,6277,3.81,72696.3,-13.83,-44.93,-45.53,0,*50
1483948809.79,6278,3.81,72694.8,-13.83,-45.33,-45.87,0,*5D
1483948811.04,6279,3.81,72684.3,-13.83,-45.53,-46.01,0,*57
1483948812.26,6280,3.75,72680.3,-13.85,-45.21,-45.87,0,*5F
1483948813.47,6281,3.81,72678.0,-13.85,-45.41,-45.87,0,*58
1483948814.71,6282,3.81,72688.3,-13.85,-45.47,-45.87,0,*5D
1483948815.95,6283,3.81,72694.8,-13.85,-45.61,-46.07,0,*53
1483948817.23,6284,3.81,72706.8,-13.87,-45.27,-45.87,0,*5F
1483948818.46,6285,3.75,72706.3,-13.87,-44.99,-45.67,0,*54
1483948819.73,6286,3.81,72706.0,-13.87,-44.53,-45.27,0,*55
1483948820.99,6287,3.75,72702.5,-13.87,-44.41,-45.07,0,*55
1483948822.25,6288,3.75,72706.5,-13.87,-44.61,-45.27,0,*5A
1483948823.5,6289,3.75,72716.0,-13.87,-44.87,-45.61,0,*51
1483948824.74,6290,3.75,72720.3,-13.89,-44.61,-45.47,0,*5B
1483948826.03,6291,3.75,72726.3,-13.87,-44.67,-45.47,0,*52
1483948827.29,6292,3.75,72722.3,-13.87,-44.53,-45.27,0,*50
1483948828.55,6293,3.75,72710.3,-13.87,-44.61,-45.27,0,*50
1483948829.84,6294,3.81,72714.8,-13.87,-44.67,-45.47,0,*57
1483948831.07,6295,3.75,72714.0,-13.89,-44.87,-45.53,0,*53
1483948832.34,6296,3.75,72714.8,-13.87,-44.87,-45.47,0,*5B
1483948833.59,6297,3.75,72714.3,-13.89,-44.73,-45.53,0,*5A
1483948834.83,6298,3.75,72714.5,-13.89,-44.67,-45.13,0,*54
1483948836.08,6299,3.81,72718.5,-13.89,-44.87,-45.47,0,*5A
1483948837.37,6300,3.81,72722.3,-13.87,-44.67,-45.27,0,*5D
1483948838.66,6301,3.81,72726.5,-13.87,-44.67,-45.27,0,*5C
1483948839.94,6302,3.81,72728.5,-13.87,-44.67,-45.07,0,*5D
1483948841.2,6303,3.75,72734.8,-13.87,-44.41,-44.93,0,*54
1483948842.42,6304,3.75,72738.3,-13.89,-44.41,-44.87,0,*58
1483948843.66,6305,3.75,72744.5,-13.87,-44.41,-44.87,0,*57
1483948844.89,6306,3.75,72752.5,-13.87,-44.41,-44.99,0,*5B
1483948846.13,6307,3.75,72750.3,-13.87,-44.79,-45.41,0,*55
1483948847.37,6308,3.81,72746.0,-13.87,-44.53,-45.41,0,*52
1483948848.64,6309,3.75,72748.5,-13.87,-44.61,-45.27,0,*52
1483948849.88,6310,3.81,72754.8,-13.87,-44.53,-45.21,0,*5D
1483948851.12,6311,3.81,72756.3,-13.85,-44.13,-44.87,0,*57
1483948852.37,6312,3.81,72754.3,-13.83,-44.33,-44.99,0,*5F
1483948853.63,6313,3.81,72750.8,-13.85,-44.33,-45.07,0,*5E
1483948854.87,6314,3.75,72740.5,-13.85,-44.41,-45.07,0,*5C
1483948856.11,6315,3.75,72736.3,-13.83,-44.27,-44.99,0,*5D
1483948857.38,6316,3.75,72738.0,-13.83,-44.27,-44.73,0,*5A
1483948858.6,6317,3.75,72738.5,-13.85,-44.61,-45.21,0,*59
1483948859.88,6318,3.81,72730.8,-13.83,-44.33,-44.93,0,*5F
1483948861.12,6319,3.81,72734.3,-13.83,-43.95,-44.53,0,*59
1483948862.38,6320,3.81,72732.8,-13.83,-44.47,-45.13,0,*5E
1483948863.63,6321,3.81,72732.0,-13.83,-44.33,-45.13,0,*5C
1483948864.89,6322,3.75,72732.0,-13.83,-44.33,-44.99,0,*5C
1483948866.11,6323,3.75,72730.5,-13.85,-44.53,-45.21,0,*5F
1483948867.35,6324,3.75,72730.5,-13.85,-44.53,-45.07,0,*5C
1483948868.59,6325,3.81,72732.3,-13.81,-44.73,-45.33,0,*5C
1483948869.84,6326,3.75,72730.3,-13.83,-44.79,-45.53,0,*51
1483948871.11,6327,3.75,72728.5,-13.83,-44.73,-45.41,0,*59
1483948872.37,6328,3.75,72726.0,-13.83,-44.47,-45.21,0,*57
1483948873.61,6329,3.75,72722.5,-13.83,-44.61,-45.13,0,*53
1483948874.84,6330,3.81,72724.5,-13.83,-44.61,-45.13,0,*5B
1483948876.07,6331,3.75,72722.5,-13.83,-44.53,-45.13,0,*5B
1483948877.31,6332,3.81,72734.3,-13.85,-44.41,-45.07,0,*58
1483948878.56,6333,3.75,72734.0,-13.83,-44.13,-44.53,0,*58
1483948879.8,6334,3.75,72740.5,-13.85,-44.01,-44.79,0,*52
1483948881.04,6335,3.81,72754.3,-13.83,-44.27,-44.79,0,*51
1483948882.28,6336,3.75,72758.0,-13.81,-44.33,-44.99,0,*5B
1483948883.49,6337,3.75,72764.3,-13.81,-44.53,-45.13,0,*5F
1483948884.7,6338,3.81,72756.0,-13.81,-44.61,-45.33,0,*53
1483948885.94,6339,3.81,72750.0,-13.81,-44.47,-44.99,0,*57
1483948887.16,6340,3.81,72762.8,-13.81,-44.61,-45.41,0,*59
1483948888.41,6341,3.75,72744.8,-13.79,-44.41,-45.07,0,*5F
1483948889.66,6342,3.75,72742.3,-13.81,-44.73,-45.21,0,*5E
1483948890.89,6343,3.81,72744.3,-13.81,-44.33,-45.13,0,*5A
1483948892.13,6344,3.75,72742.8,-13.81,-44.33,-44.99,0,*5E
1483948893.38,6345,3.81,72740.3,-13.79,-44.07,-44.67,0,*5E
1483948894.59,6346,3.75,72736.0,-13.81,-44.53,-44.99,0,*5A
1483948895.86,6347,3.75,72726.0,-13.79,-44.67,-45.33,0,*5A
1483948897.09,6348,3.81,72726.8,-13.79,-45.13,-45.67,0,*56
1483948898.36,6349,3.75,72722.3,-13.79,-44.73,-45.33,0,*51
1483948899.6,6350,3.81,72720.8,-13.81,-44.73,-45.53,0,*58
1483948900.85,6351,3.81,72716.3,-13.81,-44.73,-45.21,0,*5C
1483948902.08,6352,3.81,72712.5,-13.81,-44.13,-44.79,0,*55
1483948903.32,6353,3.81,72720.8,-13.79,-44.41,-44.87,0,*55
1483948904.59,6354,3.81,72724.5,-13.79,-44.27,-44.73,0,*59
1483948905.82,6355,3.81,72728.8,-13.79,-44.07,-44.79,0,*50
1483948907.06,6356,3.81,72732.5,-13.81,-44.01,-44.79,0,*52
1483948908.33,6357,3.81,72736.5,-13.79,-44.21,-44.87,0,*57
1483948909.6,6358,3.81,72742.0,-13.79,-44.21,-44.87,0,*58
1483948910.83,6359,3.81,72754.8,-13.77,-44.07,-44.67,0,*5D
1483948912.07,6360,3.81,72752.8,-13.77,-44.21,-44.87,0,*5D
1483948913.33,6361,3.75,72758.0,-13.77,-44.47,-45.47,0,*51
1483948914.55,6362,3.81,72758.8,-13.77,-44.27,-44.87,0,*59
1483948915.78,6363,3.81,72758.3,-13.77,-44.07,-44.73,0,*51
1483948917.04,6364,3.75,72750.3,-13.75,-44.33,-44.79,0,*59
1483948918.27,6365,3.81,72758.3,-13.77,-44.07,-44.67,0,*52
1483948919.51,6366,3.81,72748.3,-13.77,-44.27,-45.07,0,*54
1483948920.77,6367,3.81,72752.5,-13.77,-44.73,-45.47,0,*50
1483948922.01,6368,3.81,72746.5,-13.77,-44.53,-44.93,0,*55
1483948923.27,6369,3.81,72758.8,-13.77,-44.21,-44.73,0,*5F
1483948924.53,6370,3.81,72748.5,-13.75,-44.01,-44.41,0,*56
1483948925.81,6371,3.81,72750.0,-13.75,-44.21,-44.67,0,*51
1483948927.04,6372,3.81,72754.0,-13.77,-44.07,-44.47,0,*56
1483948928.27,6373,3.81,72760.5,-13.75,-43.95,-44.41,0,*5F
1483948929.5,6374,3.81,72756.8,-13.75,-43.95,-44.61,0,*5A
1483948930.76,6375,3.81,72748.5,-13.75,-44.33,-44.87,0,*58
1483948932.02,6376,3.81,72738.3,-13.75,-44.47,-44.79,0,*59
1483948933.25,6377,3.81,72736.0,-13.75,-44.41,-44.87,0,*5F
1483948934.52,6378,3.81,72732.0,-13.75,-44.21,-44.79,0,*57
1483948935.79,6379,3.75,72724.5,-13.75,-44.13,-44.67,0,*58
1483948937.04,6380,3.81,72732.5,-13.71,-44.33,-44.79,0,*57
1483948938.27,6381,3.81,72734.8,-13.71,-44.41,-44.87,0,*52
1483948939.52,6382,3.81,72738.3,-13.71,-44.33,-44.99,0,*5B
1483948940.81,6383,3.81,72746.8,-13.71,-44.67,-45.27,0,*5F
1483948942.06,6384,3.81,72756.8,-13.71,-44.47,-44.87,0,*51
1483948943.29,6385,3.81,72758.8,-13.71,-44.41,-44.87,0,*56
1483948944.55,6386,3.81,72758.0,-13.75,-44.01,-44.41,0,*5F
1483948945.78,6387,3.75,72742.8,-13.71,-43.95,-44.41,0,*50
1483948947.02,6388,3.81,72738.0,-13.69,-44.27,-44.73,0,*59
1483948948.24,6389,3.81,72700.5,-13.69,-44.13,-44.61,0,*5C
1483948949.52,6390,3.81,72692.3,-13.71,-44.47,-45.07,0,*5D
1483948950.78,6391,3.81,72690.3,-13.71,-44.61,-45.27,0,*5A
1483948952.03,6392,3.81,72710.8,-13.71,-44.67,-45.41,0,*5F
1483948953.28,6393,3.81,72726.3,-13.71,-44.41,-45.07,0,*58
1483948954.51,6394,3.81,72728.3,-13.69,-44.33,-44.99,0,*55
1483948955.75,6395,3.81,72738.3,-13.69,-44.73,-45.41,0,*54
1483948957.01,6396,3.81,72738.0,-13.71,-44.79,-45.47,0,*52
1483948958.22,6397,3.81,72742.8,-13.69,-44.53,-45.21,0,*52
1483948959.45,6398,3.81,72756.5,-13.69,-44.33,-45.21,0,*5B
1483948960.72,6399,3.81,72752.0,-13.71,-44.21,-44.87,0,*5D
1483948961.95,6400,3.81,72758.0,-13.69,-44.41,-45.27,0,*5E
1483948963.15,6401,3.81,72746.8,-13.69,-43.95,-44.61,0,*52
1483948964.4,6402,3.81,72740.0,-13.71,-44.33,-44.99,0,*54
1483948965.66,6403,3.81,72724.5,-13.71,-44.67,-45.21,0,*56
1483948966.87,6404,3.81,72730.3,-13.69,-44.61,-45.33,0,*5D
1483948968.07,6405,3.81,72734.0,-13.69,-44.53,-45.13,0,*5F
1483948969.31,6406,3.81,72740.8,-13.71,-44.61,-45.41,0,*53
1483948970.56,6407,3.81,72746.5,-13.71,-44.33,-44.99,0,*51
1483948971.84,6408,3.81,72740.3,-13.71,-44.47,-45.07,0,*5B
1483948973.09,6409,3.81,72740.8,-13.69,-44.13,-44.73,0,*50
1483948974.3,6410,3.81,72734.3,-13.69,-44.41,-45.21,0,*59
1483948975.51,6411,3.81,72742.0,-13.69,-44.53,-45.21,0,*5B
1483948976.71,6412,3.81,72734.0,-13.69,-44.53,-45.13,0,*59
1483948977.92,6413,3.81,72728.3,-13.69,-44.41,-45.21,0,*5A
1483948979.13,6414,3.81,72730.0,-13.69,-44.41,-45.21,0,*5D
1483948980.34,6415,3.81,72728.0,-13.69,-44.61,-45.33,0,*5D
1483948981.55,6416,3.81,72726.3,-13.69,-44.61,-45.33,0,*5E
1483948982.75,6417,3.81,72724.5,-13.69,-44.61,-45.33,0,*5F
1483948983.97,6418,3.81,72722.3,-13.69,-44.79,-45.41,0,*5C
1483948985.18,6419,3.81,72724.0,-13.69,-44.61,-45.33,0,*51
1483948986.39,6420,3.81,72722.5,-13.69,-44.61,-45.21,0,*58
1483948987.6,6421,3.81,72724.0,-13.69,-44.61,-45.33,0,*5A
1483948988.83,6422,3.81,72724.8,-13.67,-44.61,-45.33,0,*57
1483948990.1,6423,3.81,72726.8,-13.71,-44.87,-45.47,0,*5A
1483948991.3,6424,3.81,72728.3,-13.69,-44.61,-45.41,0,*5A
1483948992.59,6425,3.81,72732.3,-13.71,-44.67,-45.27,0,*54
1483948993.84,6426,3.81,72736.5,-13.69,-44.13,-44.93,0,*53
1483948995.05,6427,3.81,72736.5,-13.69,-44.41,-44.99,0,*5F
1483948996.25,6428,3.81,72742.8,-13.69,-44.41,-44.99,0,*50
1483948997.48,6429,3.81,72738.8,-13.69,-44.33,-44.79,0,*5A
1483948998.72,6430,3.81,72738.8,-13.69,-44.27,-44.93,0,*53
1483948999.92,6431,3.81,72740.5,-13.69,-44.41,-44.99,0,*58
1483949001.14,6432,3.81,72742.8,-13.69,-44.79,-45.33,0,*51
1483949002.4,6433,3.81,72744.3,-13.67,-44.73,-45.33,0,*54
1483949003.63,6434,3.81,72748.8,-13.67,-44.41,-45.13,0,*50
1483949004.87,6435,3.81,72744.5,-13.67,-44.53,-45.21,0,*53
1483949006.11,6436,3.81,72742.3,-13.65,-44.27,-44.93,0,*59
1483949007.37,6437,3.81,72736.3,-13.67,-44.41,-44.93,0,*5A
1483949008.63,6438,3.81,72736.3,-13.65,-44.33,-45.07,0,*5E
1483949009.86,6439,3.81,72750.8,-13.65,-44.53,-45.07,0,*59
1483949011.12,6440,3.81,72756.3,-13.67,-44.73,-45.41,0,*55
1483949012.35,6441,3.81,72770.0,-13.67,-44.61,-45.13,0,*50
1483949013.59,6442,3.81,72768.0,-13.65,-44.33,-44.87,0,*5A
1483949014.84,6443,3.81,72772.8,-13.67,-44.33,-44.99,0,*56
1483949016.06,6444,3.81,72766.8,-13.65,-44.27,-44.87,0,*59
1483949017.27,6445,3.81,72758.0,-13.65,-44.53,-45.13,0,*57
1483949018.53,6446,3.81,72752.0,-13.65,-44.47,-45.27,0,*56
1483949019.79,6447,3.81,72744.0,-13.65,-44.21,-44.67,0,*52
1483949021.05,6448,3.81,72734.3,-13.65,-44.47,-45.07,0,*5A
1483949022.31,6449,3.81,72734.8,-13.65,-44.47,-45.07,0,*5B
1483949023.57,6450,3.81,72738.5,-13.65,-44.47,-44.93,0,*5F
1483949024.82,6451,3.81,72732.5,-13.65,-44.47,-45.07,0,*52
1483949026.03,6452,3.81,72738.5,-13.65,-44.53,-45.13,0,*51
1483949027.29,6453,3.81,72738.8,-13.61,-44.67,-45.41,0,*54
1483949028.53,6454,3.81,72744.3,-13.61,-44.61,-45.33,0,*50
1483949029.8,6455,3.81,72750.0,-13.61,-44.21,-44.87,0,*5B
1483949031.09,6456,3.81,72742.8,-13.61,-44.67,-45.27,0,*51
1483949032.32,6457,3.81,72744.3,-13.63,-44.67,-45.13,0,*55
1483949033.6,6458,3.81,72758.3,-13.61,-44.67,-45.47,0,*59
1483949034.84,6459,3.81,72762.0,-13.63,-44.73,-45.33,0,*5C
1483949036.1,6460,3.81,72748.5,-13.61,-44.61,-45.07,0,*50
1483949037.37,6461,3.81,72764.3,-13.61,-44.67,-45.21,0,*53
1483949038.61,6462,3.81,72756.5,-13.61,-44.87,-45.53,0,*5B
1483949039.88,6463,3.81,72746.5,-13.63,-45.07,-45.73,0,*53
1483949041.12,6464,3.81,72746.3,-13.63,-45.47,-46.01,0,*56
1483949042.38,6465,3.81,72746.8,-13.63,-45.81,-46.41,0,*59
1483949043.62,6466,3.81,72750.3,-13.63,-44.73,-45.33,0,*50
1483949044.85,6467,3.81,72740.0,-13.63,-44.67,-45.33,0,*54
1483949046.11,6468,3.81,72738.5,-13.61,-44.67,-45.41,0,*5C
1483949047.39,6469,3.81,72732.8,-13.61,-45.27,-45.87,0,*52
1483949048.6,6470,3.81,72732.0,-13.63,-46.01,-46.75,0,*51
1483949049.82,6471,3.81,72724.3,-13.63,-46.01,-46.75,0,*50
1483949051.05,6472,3.81,72724.8,-13.63,-46.01,-46.61,0,*56
1483949052.34,6473,3.81,72734.3,-13.67,-46.07,-46.89,0,*53
1483949053.62,6474,3.81,72736.8,-13.67,-46.07,-46.69,0,*5A
1483949054.85,6475,3.81,72734.8,-13.67,-45.33,-45.87,0,*5C
1483949056.06,6476,3.81,72738.3,-13.65,-45.13,-45.61,0,*57
1483949057.3,6477,3.81,72750.3,-13.67,-45.21,-45.67,0,*53
1483949058.52,6478,3.81,72758.3,-13.67,-45.33,-45.87,0,*51
1483949059.77,6479,3.81,72772.5,-13.65,-44.93,-45.53,0,*50
1483949061.03,6480,3.81,72762.8,-13.67,-44.73,-45.41,0,*59
1483949062.3,6481,3.81,72758.3,-13.67,-44.93,-45.61,0,*54
1483949063.53,6482,3.81,72752.8,-13.65,-45.47,-46.21,0,*5A
1483949064.76,6483,3.81,72740.0,-13.65,-45.73,-46.35,0,*59
1483949066.01,6484,3.81,72746.5,-13.67,-45.21,-46.01,0,*5C
1483949067.25,6485,3.81,72742.5,-13.67,-45.53,-46.21,0,*5A
1483949068.51,6486,3.81,72754.5,-13.67,-45.41,-45.81,0,*53
1483949069.77,6487,3.81,72742.8,-13.67,-44.53,-44.93,0,*52
1483949071.03,6488,3.81,72732.5,-13.67,-44.73,-45.41,0,*51
1483949072.27,6489,3.81,72734.5,-13.67,-45.41,-46.01,0,*57
1483949073.51,6490,3.81,72718.0,-13.67,-45.41,-46.01,0,*5F
1483949074.72,6491,3.81,72708.0,-13.69,-45.53,-46.01,0,*53
1483949075.98,6492,3.81,72694.0,-13.71,-45.67,-46.15,0,*5B
1483949077.19,6493,3.81,72712.5,-13.69,-45.61,-46.21,0,*52
1483949078.42,6494,3.81,72704.3,-13.71,-45.95,-46.55,0,*54
1483949079.7,6495,3.81,72718.0,-13.71,-45.73,-46.49,0,*50
1483949080.96,6496,3.81,72720.8,-13.71,-45.87,-46.49,0,*58
1483949082.18,6497,3.81,72728.0,-13.71,-45.87,-46.55,0,*54
1483949083.44,6498,3.81,72726.8,-13.71,-45.67,-46.27,0,*50
1483949084.73,6499,3.81,72716.3,-13.71,-45.47,-46.07,0,*51
1483949085.98,6500,3.81,72706.0,-13.71,-45.41,-46.15,0,*55
1483949087.24,6501,3.81,72724.0,-13.75,-45.87,-46.69,0,*51
1483949088.5,6502,3.81,72720.8,-13.75,-45.95,-46.69,0,*51
1483949089.78,6503,3.81,72720.0,-13.75,-45.73,-46.49,0,*5A
1483949091.01,6504,3.81,72722.3,-13.75,-45.61,-46.35,0,*55
1483949092.24,6505,3.81,72714.5,-13.75,-45.87,-46.55,0,*5A
1483949093.45,6506,3.81,72718.3,-13.77,-45.95,-46.75,0,*5A
1483949094.69,6507,3.81,72710.0,-13.77,-45.73,-46.35,0,*57
1483949095.92,6508,3.81,72710.8,-13.77,-45.95,-46.61,0,*51
1483949097.12,6509,3.81,72742.0,-13.77,-46.21,-46.97,0,*55
1483949098.36,6510,3.81,72736.3,-13.77,-46.55,-47.03,0,*52
1483949099.57,6511,3.81,72742.0,-13.77,-46.35,-47.17,0,*50
1483949100.78,6512,3.81,72732.5,-13.81,-46.83,-47.51,0,*55
1483949102.05,6513,3.81,72724.3,-13.79,-46.15,-46.83,0,*52
1483949103.27,6514,3.81,72720.8,-13.81,-46.83,-47.51,0,*53
1483949104.51,6515,3.81,72728.5,-13.81,-47.31,-47.93,0,*54
1483949105.74,6516,3.81,72724.0,-13.81,-46.69,-47.51,0,*55
1483949106.96,6517,3.81,72724.5,-13.85,-47.17,-47.85,0,*51
1483949108.2,6518,3.81,72722.0,-13.85,-46.89,-47.57,0,*57
1483949109.44,6519,3.81,72714.3,-13.85,-46.27,-46.97,0,*5F
1483949110.71,6520,3.81,72718.5,-13.85,-46.15,-46.89,0,*5B
1483949111.98,6521,3.81,72722.3,-13.85,-46.15,-46.89,0,*5A
1483949113.24,6522,3.81,72722.8,-13.85,-46.07,-46.89,0,*5A
1483949114.45,6523,3.81,72720.3,-13.85,-45.87,-46.75,0,*53
1483949115.71,6524,3.81,72726.8,-13.87,-45.87,-46.69,0,*5B
1483949116.94,6525,3.81,72728.5,-13.87,-45.87,-46.55,0,*55
1483949118.16,6526,3.81,72734.0,-13.89,-45.95,-46.55,0,*5B
1483949119.39,6527,3.81,72738.0,-13.87,-45.41,-45.95,0,*52
1483949120.66,6528,3.81,72730.8,-13.87,-44.87,-45.47,0,*59
1483949121.93,6529,3.81,72726.5,-13.87,-44.87,-45.47,0,*58
1483949123.21,6530,3.81,72722.8,-13.87,-45.27,-45.61,0,*5F
1483949124.42,6531,3.81,72718.5,-13.85,-44.61,-45.21,0,*5B
1483949125.64,6532,3.81,72720.3,-13.85,-44.99,-45.61,0,*5B
1483949126.86,6533,3.81,72702.0,-13.85,-44.61,-45.41,0,*5F
1483949128.11,6534,3.81,72702.8,-13.85,-45.27,-45.95,0,*52
1483949129.33,6535,3.81,72698.0,-13.85,-45.21,-45.87,0,*56
1483949130.54,6536,3.81,72706.0,-13.85,-45.21,-45.95,0,*56
1483949131.8,6537,3.81,72720.8,-13.83,-45.87,-46.61,0,*55
1483949133.06,6538,3.81,72730.0,-13.85,-46.07,-46.69,0,*5F
1483949134.3,6539,3.81,72710.8,-13.85,-46.49,-47.31,0,*58
1483949135.55,6540,3.81,72700.5,-13.85,-47.09,-47.79,0,*5F
1483949136.79,6541,3.81,72694.3,-13.87,-46.35,-46.97,0,*53
1483949138.02,6542,3.81,72698.5,-13.89,-45.73,-46.75,0,*53
1483949139.28,6543,3.81,72696.8,-13.87,-46.69,-47.17,0,*51
1483949140.49,6544,3.81,72704.5,-13.89,-44.41,-44.07,0,*52
1483949141.71,6545,3.81,72698.3,-13.93,-43.41,-43.01,0,*5E
1483949142.97,6546,3.81,72696.8,-13.91,-43.67,-43.49,0,*57
1483949144.18,6547,3.81,72692.3,-13.93,-43.61,-44.41,0,*5D
1483949145.45,6548,3.81,72698.3,-13.95,-46.01,-46.41,0,*55
1483949146.72,6549,3.81,72686.0,-13.95,-45.53,-46.07,0,*52
1483949147.96,6550,3.81,72708.8,-13.99,-46.01,-46.69,0,*5A
1483949149.22,6551,3.81,72718.0,-14.03,-47.37,-48.13,0,*58
1483949150.43,6552,3.81,72722.5,-14.03,-47.17,-47.85,0,*59
1483949151.67,6553,3.81,72730.0,-14.05,-46.21,-46.83,0,*5D
1483949152.9,6554,3.81,72722.3,-14.05,-46.75,-47.65,0,*52
1483949154.17,6555,3.81,72720.0,-14.05,-45.13,-46.07,0,*55
1483949155.44,6556,3.81,72732.0,-14.05,-45.07,-45.87,0,*58
1483949156.68,6557,3.81,72738.0,-14.03,-45.27,-45.95,0,*5E
1483949157.92,6558,3.81,72738.0,-14.03,-44.93,-45.87,0,*5C
1483949159.18,6559,3.81,72740.0,-14.03,-45.07,-45.73,0,*5A
1483949160.46,6560,3.81,72736.0,-14.01,-44.73,-45.47,0,*57
1483949161.76,6561,3.81,72738.3,-14.01,-45.07,-45.81,0,*5E
1483949163.0,6562,3.81,72732.8,-14.01,-44.99,-45.61,0,*55
1483949164.21,6563,3.81,72722.5,-13.99,-44.41,-45.21,0,*53
1483949165.43,6564,3.81,72710.5,-13.99,-44.61,-45.21,0,*56
1483949166.68,6565,3.81,72706.3,-13.95,-44.79,-45.53,0,*57
1483949167.92,6566,3.81,72710.8,-13.95,-44.99,-45.61,0,*5B
1483949169.17,6567,3.81,72696.8,-13.99,-45.21,-45.81,0,*5A
1483949170.43,6568,3.81,72702.8,-13.95,-45.41,-46.07,0,*52
1483949171.7,6569,3.81,72694.5,-13.95,-45.61,-46.27,0,*53
1483949172.98,6570,3.81,72708.5,-13.95,-45.73,-46.41,0,*58
1483949174.22,6571,3.81,72718.3,-13.99,-46.07,-46.75,0,*52
1483949175.48,6572,3.81,72724.0,-13.95,-45.95,-46.49,0,*5A
1483949176.74,6573,3.81,72732.5,-13.95,-45.73,-46.21,0,*5D
1483949178.01,6574,3.88,72726.3,-13.99,-45.47,-46.07,0,*55
1483949179.29,6575,3.81,72706.8,-13.95,-46.07,-46.69,0,*57
1483949180.54,6576,3.81,72720.8,-13.99,-46.27,-46.97,0,*5B
1483949181.8,6577,3.81,72716.5,-13.99,-46.15,-46.89,0,*54
1483949183.05,6578,3.81,72714.3,-13.99,-46.15,-46.75,0,*58
1483949184.29,6579,3.81,72722.0,-13.99,-46.15,-46.97,0,*55
1483949185.53,6580,3.81,72716.3,-13.99,-46.27,-46.97,0,*52
1483949186.74,6581,3.81,72726.5,-13.99,-46.35,-47.09,0,*56
1483949187.98,6582,3.81,72714.8,-14.01,-46.35,-47.17,0,*5C
1483949189.24,6583,3.81,72718.8,-14.01,-46.75,-47.37,0,*5B
1483949190.52,6584,3.81,72726.5,-14.01,-46.69,-47.37,0,*51
1483949191.78,6585,3.81,72720.5,-14.01,-46.55,-47.37,0,*5F
1483949193.01,6586,3.81,72710.3,-14.03,-46.21,-47.03,0,*5A
1483949194.27,6587,3.81,72712.5,-14.01,-46.27,-47.09,0,*55
1483949195.56,6588,3.81,72708.0,-14.01,-46.49,-47.37,0,*5F
1483949196.82,6589,3.81,72712.0,-14.01,-46.89,-47.57,0,*54
1483949198.08,6590,3.81,72712.0,-14.05,-46.75,-47.37,0,*5D
1483949199.37,6591,3.81,72718.5,-14.05,-46.61,-47.37,0,*59
1483949200.65,6592,3.88,72714.5,-14.05,-46.61,-47.37,0,*5A
1483949201.91,6593,3.81,72708.5,-14.05,-46.41,-47.17,0,*5B
1483949203.19,6594,3.81,72718.5,-14.05,-46.61,-47.37,0,*5C
1483949204.45,6595,3.81,72718.3,-14.05,-46.75,-47.37,0,*58
1483949205.71,6596,3.81,72724.5,-14.05,-47.17,-47.71,0,*5C
1483949206.99,6597,3.81,72722.0,-14.05,-47.03,-47.71,0,*58
1483949208.23,6598,3.88,72726.0,-14.05,-47.17,-47.85,0,*59
1483949209.52,6599,3.81,72722.8,-14.09,-46.49,-47.23,0,*52
1483949210.77,6600,3.88,72726.8,-14.09,-46.21,-46.83,0,*54
1483949212.06,6601,3.81,72726.8,-14.09,-46.49,-47.23,0,*50
1483949213.3,6602,3.81,72728.0,-14.11,-45.95,-46.49,0,*55
1483949214.55,6603,3.81,72730.5,-14.11,-45.73,-46.41,0,*54
1483949215.79,6604,3.81,72740.3,-14.11,-45.53,-46.15,0,*50
1483949217.01,6605,3.81,72738.5,-14.11,-45.61,-46.21,0,*57
1483949218.25,6606,3.81,72728.8,-14.09,-45.13,-45.61,0,*5F
1483949219.49,6607,3.81,72732.8,-14.09,-44.99,-45.41,0,*5F
1483949220.72,6608,3.88,72746.3,-14.11,-45.33,-45.81,0,*54
1483949221.99,6609,3.81,72746.8,-14.05,-44.79,-45.07,0,*51
1483949223.25,6610,3.81,72756.5,-14.05,-44.27,-44.67,0,*55
1483949224.51,6611,3.81,72756.3,-14.05,-44.93,-45.67,0,*5A
1483949225.78,6612,3.81,72762.8,-14.05,-44.87,-45.47,0,*5E
1483949227.03,6613,3.81,72746.5,-14.05,-44.79,-45.33,0,*5D
1483949228.28,6614,3.81,72760.5,-14.05,-44.87,-45.53,0,*5D
1483949229.52,6615,3.81,72754.3,-14.01,-44.99,-45.67,0,*50
1483949230.75,6616,3.81,72752.5,-14.03,-45.13,-45.73,0,*57
1483949231.98,6617,3.81,72760.8,-14.03,-44.67,-45.33,0,*50
1483949233.23,6618,3.81,72758.3,-14.01,-44.79,-45.41,0,*57
1483949234.48,6619,3.81,72764.3,-14.01,-44.87,-45.61,0,*55
1483949235.72,6620,3.81,72754.8,-14.01,-44.99,-45.61,0,*50
1483949236.97,6621,3.81,72750.5,-14.01,-44.87,-45.61,0,*5E
1483949238.23,6622,3.81,72748.8,-14.01,-45.07,-45.67,0,*52
1483949239.5,6623,3.88,72748.3,-13.99,-44.73,-45.27,0,*53
1483949240.74,6624,3.81,72746.0,-13.99,-44.61,-45.27,0,*57
1483949242.01,6625,3.81,72748.0,-13.95,-44.93,-45.67,0,*53
1483949243.26,6626,3.81,72752.0,-13.95,-44.79,-45.53,0,*53
1483949244.52,6627,3.81,72752.0,-13.99,-44.73,-45.27,0,*57
1483949245.78,6628,3.81,72750.8,-13.95,-44.67,-45.13,0,*56
1483949247.07,6629,3.81,72756.3,-13.95,-44.47,-44.73,0,*52
1483949248.35,6630,3.81,72744.0,-13.95,-44.33,-44.73,0,*59
1483949249.59,6631,3.81,72746.8,-13.95,-44.53,-44.99,0,*5A
1483949250.88,6632,3.81,72738.3,-13.95,-44.47,-44.93,0,*56
1483949252.17,6633,3.81,72742.5,-13.95,-44.47,-44.93,0,*57
1483949253.43,6634,3.81,72738.8,-13.91,-44.47,-45.13,0,*5D
1483949254.67,6635,3.81,72740.5,-13.93,-44.47,-44.87,0,*52
1483949255.92,6636,3.81,72734.0,-13.93,-44.47,-45.07,0,*58
1483949257.21,6637,3.81,72726.5,-13.91,-44.93,-45.47,0,*56
1483949258.5,6638,3.81,72720.0,-13.91,-44.67,-45.07,0,*56
1483949259.79,6639,3.81,72724.5,-13.91,-44.93,-45.47,0,*58
1483949261.05,6640,3.88,72728.8,-13.93,-45.07,-45.73,0,*5F
1483949262.31,6641,3.81,72732.3,-13.91,-45.13,-45.73,0,*59
1483949263.59,6642,3.81,72732.8,-13.91,-44.87,-45.27,0,*57
1483949264.85,6643,3.81,72738.3,-13.91,-44.61,-45.07,0,*5C
1483949266.12,6644,3.88,72750.8,-13.91,-44.93,-45.53,0,*57
1483949267.39,6645,3.81,72748.3,-13.91,-44.87,-45.47,0,*56
1483949268.68,6646,3.81,72762.3,-13.91,-44.47,-44.93,0,*51
1483949269.92,6647,3.81,72750.3,-13.89,-44.47,-45.13,0,*50
1483949271.19,6648,3.81,72744.5,-13.89,-44.73,-45.47,0,*59
1483949272.41,6649,3.81,72746.3,-13.89,-45.33,-46.01,0,*5C
1483949273.7,6650,3.81,72742.3,-13.87,-45.07,-45.81,0,*56
1483949274.95,6651,3.81,72746.0,-13.87,-44.79,-45.41,0,*53
1483949276.21,6652,3.81,72742.3,-13.87,-44.99,-45.81,0,*52
1483949277.48,6653,3.81,72742.5,-13.87,-44.79,-45.47,0,*57
1483949278.73,6654,3.81,72742.3,-13.87,-44.87,-45.67,0,*53
1483949279.96,6655,3.88,72738.5,-13.87,-44.99,-45.67,0,*5D
1483949281.21,6656,3.81,72734.3,-13.87,-45.21,-45.87,0,*52
1483949282.48,6657,3.81,72736.3,-13.87,-45.21,-45.81,0,*55
1483949283.72,6658,3.81,72738.5,-13.89,-45.07,-45.67,0,*58
1483949284.96,6659,3.81,72728.5,-13.89,-45.47,-45.95,0,*50
1483949286.2,6660,3.81,72720.0,-13.89,-45.07,-45.67,0,*53
1483949287.44,6661,3.81,72730.0,-13.87,-44.99,-45.61,0,*5C
1483949288.74,6662,3.81,72734.3,-13.87,-45.07,-45.81,0,*57
1483949290.0,6663,3.81,72730.5,-13.87,-44.99,-45.47,0,*5A
1483949291.24,6664,3.81,72736.8,-13.87,-44.99,-45.61,0,*59
1483949292.51,6665,3.81,72738.0,-13.87,-45.07,-45.67,0,*58
1483949293.8,6666,3.81,72736.5,-13.87,-45.07,-45.81,0,*53
1483949295.04,6667,3.81,72736.3,-13.87,-44.99,-45.61,0,*5A
1483949296.28,6668,3.81,72746.5,-13.89,-44.99,-45.47,0,*5F
1483949297.53,6669,3.81,72764.3,-13.87,-44.87,-45.61,0,*5B
1483949298.77,6670,3.81,72754.3,-13.87,-44.41,-45.21,0,*5D
1483949300.04,6671,3.88,72744.5,-13.87,-44.79,-45.47,0,*57
1483949301.34,6672,3.81,72744.3,-13.87,-45.27,-45.81,0,*54
1483949302.57,6673,3.88,72754.3,-13.85,-44.87,-45.61,0,*52
1483949303.81,6674,3.81,72744.8,-13.85,-44.99,-45.81,0,*54
1483949305.04,6675,3.81,72734.3,-13.85,-44.87,-45.61,0,*54
1483949306.26,6676,3.81,72742.3,-13.85,-45.21,-45.95,0,*51
1483949307.52,6677,3.81,72738.0,-13.83,-45.21,-45.81,0,*53